Vertical_Velocity
-7 -3 -2 -4 -9 -8 -17 -5 -12 -8 7 -5 -5 -0 -2 -1 -1 1 3 -8 -2 -2 -3 -1 -3 0 1 -2 -6 -1 -4 -4
2 -1 6 -1 -6 -6 -21 -1 2 2 -5 7 1 -1 -2 2 -1 2 2 -4 -0 -5 -5 -3 -3 -4 -7 -6 -6 -8 0 -3
4 1 1 1 9 -15 -7 2 -2 -6 2 2 0 -1 -3 -2 -3 1 -3 -2 1 1 -4 -6 1 -4 -8 -7 -7 -10 -7 -1
-3 0 2 3 1 -4 -3 -0 3 -1 -6 1 -2 1 -1 2 -0 -4 -2 -5 -4 -1 -5 -4 -6 4 -6 -4 -3 -6 -14 6
-0 7 1 0 1 1 2 -1 7 7 -7 2 -1 1 3 3 -3 -0 0 0 1 -2 -0 -2 -4 2 -3 -3 0 -3 -2 -11
-1 -3 3 4 2 2 2 -0 5 2 11 -4 -1 -4 -3 0 -1 -3 1 1 -6 0 -0 -2 -2 -3 4 -2 -2 -0 -3 -2
-3 -3 1 5 3 1 3 -4 -4 4 -3 2 3 0 1 -3 -4 -4 -1 -4 1 -1 -4 -2 -1 -1 -0 -4 -2 -5 -5 3
-2 1 -4 3 1 1 1 0 -2 -10 -14 5 -2 0 2 2 -2 -1 -1 1 3 1 -3 2 -1 3 1 -2 9 -12 -11 -7
2 -3 -2 -3 5 -1 0 0 -4 -6 -10 -12 -6 -2 -1 -0 -1 -2 -2 0 4 -5 4 -3 -10 -1 -4 -3 -1 -2 -1 -2
2 0 -0 10 -0 -2 -0 2 10 2 -5 0 -2 1 -2 3 4 -1 -1 -2 0 -6 0 1 -1 -1 -5 -3 -7 -3 0 2
-1 -2 0 -5 -4 -5 -6 1 2 -1 -3 -2 -3 -6 -4 -1 -5 -4 1 1 2 7 -3 4 -0 -1 2 -1 -2 -2 -4 -2
-3 -5 -3 -3 2 4 -3 -2 -2 2 -2 -1 0 -5 -1 2 -5 -2 -1 -0 -2 -1 -7 -5 -6 -6 -2 -1 1 2 1 3
-0 6 1 -2 -1 -2 -9 -6 -4 -1 -3 -2 -3 -6 2 2 -2 -5 1 -0 -0 -3 -2 -2 0 -0 -2 -2 0 0 -2 -4
-1 0 2 0 -1 -7 4 -3 0 0 -1 8 2 -5 2 1 -3 -5 1 0 0 -2 -4 -4 -1 0 -1 0 4 -0 -0 1
-0 -4 -5 -2 4 2 1 -0 -6 -2 -1 13 12 -2 8 0 1 -1 2 0 -1 0 -1 -2 -2 -1 -4 2 3 2 -2 0
1 -2 -2 -4 0 -3 -2 3 -5 4 -5 0 -2 -7 6 9 2 -2 0 -2 0 -1 -0 0 -3 -2 3 2 0 -4 -6 -1
-3 -4 -5 -5 0 -0 -1 0 0 -14 2 -1 -0 -1 -27 -17 -9 -10 -4 -2 -2 -1 2 -2 0 -6 -0 2 1 -3 0 -3
0 -3 -3 -2 -1 -3 1 -2 3 -6 -8 -2 -4 2 8 -2 -1 -4 -3 -0 -0 -1 1 -2 2 -6 -2 -0 3 -1 -0 1
-3 -4 1 0 0 -1 0 8 5 2 4 2 -1 2 1 -3 3 1 -3 -2 -2 -0 2 -1 -2 -0 -6 -9 -4 -7 -2 -2
Height
5811 5811 5809 5807 5806 5806 5801 5795 5791 5787 5783 5782 5776 5771 5768 5763 5761 5754 5753 5745 5742 5736 5732 5729 5725 5721 5718 5714 5710 5708 5705 5702
5810 5808 5805 5802 5799 5796 5791 5789 5785 5780 5775 5774 5770 5765 5759 5755 5751 5745 5741 5735 5733 5725 5721 5717 5713 5708 5704 5699 5695 5693 5691 5686
5807 5805 5802 5798 5796 5789 5786 5783 5782 5776 5768 5764 5762 5757 5751 5746 5741 5736 5730 5725 5719 5714 5708 5703 5699 5693 5687 5683 5678 5674 5672 5668
5801 5798 5796 5792 5789 5784 5779 5775 5773 5768 5761 5757 5753 5748 5742 5738 5732 5726 5720 5713 5707 5702 5694 5688 5683 5679 5673 5666 5659 5654 5651 5650
5795 5794 5790 5785 5781 5777 5773 5769 5766 5761 5753 5747 5743 5737 5732 5726 5720 5714 5708 5701 5695 5688 5681 5674 5667 5661 5653 5647 5641 5635 5629 5627
5785 5782 5779 5777 5774 5769 5764 5760 5756 5750 5744 5739 5735 5727 5721 5715 5708 5701 5695 5688 5678 5671 5664 5655 5648 5641 5635 5627 5621 5616 5609 5603
5777 5773 5769 5769 5766 5760 5755 5750 5744 5740 5735 5731 5725 5717 5711 5702 5695 5688 5681 5671 5663 5655 5646 5637 5630 5622 5614 5606 5598 5591 5587 5580
5771 5767 5763 5761 5758 5752 5747 5743 5737 5730 5723 5719 5712 5704 5696 5688 5679 5670 5661 5653 5644 5635 5625 5617 5607 5600 5591 5583 5575 5561 5557 5551
5764 5759 5755 5751 5749 5744 5741 5736 5727 5720 5713 5704 5696 5687 5678 5669 5660 5651 5642 5633 5623 5612 5605 5594 5583 5576 5565 5557 5548 5538 5529 5520
5758 5752 5748 5747 5742 5736 5731 5725 5718 5710 5701 5692 5682 5673 5664 5653 5643 5633 5623 5613 5601 5590 5581 5571 5559 5551 5539 5530 5521 5512 5502 5494
5749 5745 5742 5735 5729 5725 5719 5713 5704 5694 5684 5676 5665 5654 5644 5633 5621 5612 5601 5591 5580 5570 5559 5548 5536 5525 5513 5502 5493 5483 5475 5471
5741 5737 5731 5726 5721 5715 5707 5700 5690 5680 5670 5659 5647 5636 5624 5612 5600 5590 5580 5571 5559 5548 5534 5523 5511 5499 5488 5478 5470 5464 5459 5455
5734 5730 5723 5716 5709 5701 5692 5685 5675 5665 5653 5640 5628 5617 5605 5592 5579 5569 5558 5548 5537 5525 5514 5502 5490 5479 5470 5461 5455 5450 5444 5440
5726 5721 5715 5708 5700 5690 5680 5670 5660 5650 5638 5624 5609 5596 5584 5572 5559 5548 5537 5525 5514 5501 5489 5478 5470 5461 5454 5448 5442 5435 5429 5424
5717 5710 5703 5695 5687 5677 5667 5653 5640 5627 5615 5605 5591 5577 5567 5552 5538 5526 5515 5503 5491 5480 5469 5460 5453 5447 5440 5435 5427 5419 5411 5405
5707 5699 5691 5682 5672 5660 5648 5634 5618 5605 5592 5582 5569 5555 5546 5534 5519 5506 5495 5483 5473 5463 5454 5446 5440 5433 5427 5419 5410 5400 5391 5386
5696 5687 5676 5665 5655 5641 5626 5612 5598 5585 5575 5562 5550 5535 5515 5505 5492 5483 5476 5467 5457 5448 5441 5435 5428 5419 5412 5404 5393 5383 5376 5369
5681 5671 5660 5648 5635 5622 5610 5597 5583 5568 5556 5541 5527 5518 5506 5491 5481 5469 5461 5451 5443 5437 5431 5424 5416 5407 5397 5388 5380 5370 5361 5354
5666 5655 5643 5631 5618 5607 5596 5582 5567 5552 5536 5520 5512 5500 5491 5479 5468 5457 5447 5439 5434 5428 5421 5414 5406 5394 5383 5373 5365 5356 5348 5339